{"data":{"norad_id":59617,"epoch":"2026-09-21T08:35:13.774848Z","epoch_age_seconds":94002,"freshness":"FRESH","line1":"1 59617U 24080S   26264.35779832  .00000342  00000+0  21960-4 0  9996","line2":"2 59617  43.0040  13.2130 0001403 282.4599  77.6096 15.27579400134450","mean_motion":15.275794,"eccentricity":0.0001403,"inclination_deg":43.004,"raan_deg":13.213,"arg_perigee_deg":282.4599,"mean_anomaly_deg":77.6096,"bstar":2.196e-5,"rev_number":13445,"period_min":94.266785739583,"perigee_km":482.08826799475,"apogee_km":484.01351731743,"semimajor_km":6861.1878926561,"source":"CELESTRAK","updated_at":"2026-09-22T09:00:49.013169Z"}}